TimeEDT,TemperatureF,Dew PointF,Humidity,Sea Level PressureIn,VisibilityMPH,Wind Direction,Wind SpeedMPH,Gust SpeedMPH,PrecipitationIn,Events,Conditions,WindDirDegrees,DateUTC
12:53 AM,73.0,72.0,96,29.94,10.0,ENE,3.5,-,N/A,,Clear,60,2013-09-13 04:53:00
1:53 AM,73.0,72.0,96,29.93,10.0,NE,3.5,-,N/A,,Clear,50,2013-09-13 05:53:00
2:53 AM,73.0,72.0,96,29.92,10.0,NE,4.6,-,N/A,,Clear,40,2013-09-13 06:53:00
3:00 AM,73.4,71.6,94,29.92,10.0,NE,4.6,-,N/A,,Partly Cloudy,50,2013-09-13 07:00:00
3:25 AM,73.4,71.6,94,29.91,10.0,NE,3.5,-,N/A,,Mostly Cloudy,40,2013-09-13 07:25:00
3:53 AM,73.0,72.0,96,29.91,10.0,Calm,Calm,-,N/A,,Mostly Cloudy,0,2013-09-13 07:53:00
3:59 AM,73.4,71.6,94,29.90,1.5,Calm,Calm,-,N/A,,Mostly Cloudy,0,2013-09-13 07:59:00
4:08 AM,71.6,71.6,100,29.90,0.5,Calm,Calm,-,N/A,Fog,Fog,0,2013-09-13 08:08:00
4:53 AM,72.0,71.1,97,29.90,0.5,Calm,Calm,-,N/A,Fog,Fog,0,2013-09-13 08:53:00
5:32 AM,71.6,71.6,100,29.90,1.8,Calm,Calm,-,N/A,,Mostly Cloudy,0,2013-09-13 09:32:00
5:35 AM,71.6,71.6,100,29.90,3.0,Calm,Calm,-,N/A,,Mostly Cloudy,0,2013-09-13 09:35:00
5:46 AM,71.6,71.6,100,29.91,10.0,Calm,Calm,-,N/A,,Scattered Clouds,0,2013-09-13 09:46:00
5:53 AM,72.0,71.1,97,29.91,10.0,Calm,Calm,-,N/A,,Partly Cloudy,0,2013-09-13 09:53:00
6:53 AM,72.0,71.1,97,29.91,10.0,ENE,3.5,-,N/A,,Clear,60,2013-09-13 10:53:00
7:53 AM,72.0,72.0,100,29.93,10.0,Calm,Calm,-,0.01,,Clear,0,2013-09-13 11:53:00
8:53 AM,75.9,73.0,91,29.94,10.0,NE,3.5,-,N/A,,Clear,40,2013-09-13 12:53:00
9:53 AM,80.1,73.0,79,29.94,10.0,Calm,Calm,-,N/A,,Clear,0,2013-09-13 13:53:00
10:53 AM,82.0,72.0,71,29.93,10.0,Calm,Calm,-,N/A,,Clear,0,2013-09-13 14:53:00
11:53 AM,86.0,72.0,63,29.93,10.0,Calm,Calm,-,N/A,,Clear,0,2013-09-13 15:53:00
12:17 PM,86.0,71.6,62,29.92,10.0,Calm,Calm,-,N/A,,Mostly Cloudy,0,2013-09-13 16:17:00
12:27 PM,87.8,73.4,62,29.92,10.0,Variable,3.5,-,N/A,,Scattered Clouds,0,2013-09-13 16:27:00
12:53 PM,87.1,72.0,61,29.91,10.0,Variable,3.5,-,N/A,,Partly Cloudy,0,2013-09-13 16:53:00
1:53 PM,88.0,70.0,55,29.89,10.0,WNW,3.5,-,N/A,,Clear,300,2013-09-13 17:53:00
2:53 PM,90.0,70.0,52,29.87,10.0,Variable,4.6,-,N/A,,Scattered Clouds,0,2013-09-13 18:53:00
3:53 PM,86.0,72.0,63,29.86,10.0,NW,11.5,17.3,N/A,,Clear,320,2013-09-13 19:53:00
4:53 PM,82.9,73.0,72,29.84,10.0,NW,6.9,-,N/A,,Scattered Clouds,310,2013-09-13 20:53:00
5:53 PM,84.0,73.0,69,29.85,10.0,NNW,5.8,-,N/A,,Partly Cloudy,340,2013-09-13 21:53:00
6:53 PM,84.0,72.0,67,29.85,10.0,Calm,Calm,-,N/A,,Clear,0,2013-09-13 22:53:00
7:53 PM,80.1,73.9,81,29.85,10.0,NNW,4.6,-,N/A,,Clear,340,2013-09-13 23:53:00
8:53 PM,80.1,73.9,81,29.87,10.0,NNW,3.5,-,N/A,,Clear,330,2013-09-14 00:53:00
9:53 PM,80.1,73.9,81,29.88,10.0,Calm,Calm,-,N/A,,Clear,0,2013-09-14 01:53:00
10:53 PM,79.0,75.0,88,29.88,10.0,Calm,Calm,-,N/A,,Clear,0,2013-09-14 02:53:00
11:53 PM,78.1,75.0,90,29.89,10.0,Calm,Calm,-,N/A,,Clear,0,2013-09-14 03:53:00